User: anonymous   Login
Location: Unspecified
(0.0000°N, 0.0000°E)
Time: 00:27:46
(UTC+00:00)
Language:

UFO F6 - Orbit

View from above orbital plane
View from above orbital plane
View from above satellite
View from above satellite

Ground track
Ground track

The orbit data is extracted from the following two-line orbital elements,

1 23696U 95057A   17075.88884271 0.00000000  00000-0  00000-0 0    01
2 23696   8.9416  30.1276 0006502 235.5787 124.4404  1.00270000    04
Epoch (UTC): 16 March 2017 21:19:56
Eccentricity: 0.0006502
inclination: 8.9416°
perigee height: 35759 km
apogee height: 35814 km
right ascension of ascending node: 30.1276°
argument of perigee: 235.5787°
revolutions per day: 1.00270000
mean anomaly at epoch: 124.4404°
orbit number at epoch: 0

The dashed part of the orbit path shows where the satellite is in the earth's shadow,  

DLR